Find IMP 7

NORAD ID: 6197 Int'l Des: 1972-073 Owner: GSFC Country: US operational
HEOELLIPTICAL

实时位置

正在加载3D地球...

关于 IMP 7

正在加载描述...

即将过境

Passes for default location (London). Set your location on the main map for personalized predictions.

高度历史

Loading altitude history...

两行轨道根数

1 6197U 72073A 25193.82548704 -.00001053 00000-0 00000+0 0 9999
2 6197 48.3952 57.1732 1266560 176.6749 354.2394 0.07880551 3633
Epoch: Jul 12, 2025 • Age: 6683 hours

当前状态

高度 211185.4 km
速度 1.39 km/s
星下点 31.53°N, 110.35°W
类型 other

Most Searched